Printer-friendly version
Follow the MPC on Twitter Follow the MPC on Facebook The MPC blog
Minor Planet Center

MPEC 2000-E26 : 2000 EE14

The following Minor Planet Electronic Circular may be linked-to from your own Web pages, but must not otherwise be redistributed electronically.

A form allowing access to any MPEC is at the bottom of this page.


Read MPEC 2000-E25 Read MPEC 2000-E27


M.P.E.C. 2000-E26                                Issued 2000 Mar. 7, 15:54 UT

     The Minor Planet Electronic Circulars contain information on unusual
         minor planets and routine data on comets.  They are published
   on behalf of Commission 20 of the International Astronomical Union by the
          Minor Planet Center, Smithsonian Astrophysical Observatory,
                          Cambridge, MA 02138, U.S.A.

             Prepared using the Tamkin Foundation Computer Network

             BMARSDEN@CFA.HARVARD.EDU or GWILLIAMS@CFA.HARVARD.EDU
          URL http://cfa-www.harvard.edu/iau/mpc.html  ISSN 1523-6714

                                   2000 EE14

Observations:
     K00E14E* C2000 03 04.46981 17 00 37.64 +27 05 50.6          15.2        704
     K00E14E  C2000 03 04.48346 17 00 40.37 +27 08 14.5          15.4        704
     K00E14E  C2000 03 04.49711 17 00 43.12 +27 10 38.1          15.5        704
     K00E14E  C2000 03 04.51091 17 00 45.88 +27 13 03.5          15.2        704
     K00E14E  C2000 03 04.52444 17 00 48.57 +27 15 26.0          16.1        704
     K00E14E  C2000 03 05.11663 17 03 03.74 +28 58 42.3          14.9 R      946
     K00E14E  C2000 03 05.11717 17 03 03.86 +28 58 47.8          15.1 R      946
     K00E14E  C2000 03 05.12352 17 03 05.20 +28 59 54.8                      946
     K00E14E  C2000 03 05.12836 17 03 06.23 +29 00 46.1                      946
     K00E14E  C2000 03 05.19091 17 03 18.80 +29 11 42.3                      557
     K00E14E  C2000 03 05.19152 17 03 18.94 +29 11 48.7                      557
     K00E14E  C2000 03 05.19211 17 03 19.00 +29 11 54.4                      557
     K00E14E  C2000 03 05.19271 17 03 19.24 +29 12 02.3                      557
     K00E14E sC2000 03 05.34350 17 03 56.38 +29 38 24.2          16.0 V      649
     K00E14E  C2000 03 05.34584 17 03 56.92 +29 38 49.4          16.0 V      649
     K00E14E EC2000 03 05.34928 17 03 57.73 +29 39 25.1          15.9 V      649
     K00E14E  C2000 03 05.35652 17 03 59.29 +29 40 43.8          16.0 V      649
     K00E14E  C2000 03 05.35675 17 03 59.34 +29 40 45.5          15.7 V      739
     K00E14E  C2000 03 05.35895 17 03 59.81 +29 41 08.0          15.6 V      739
     K00E14E  C2000 03 05.35902 17 03 59.86 +29 41 08.9          15.8 V      649
     K00E14E  C2000 03 05.36002 17 04 00.06 +29 41 19.2          15.7 V      739
     K00E14E  C2000 03 05.36385 17 04 01.43 +29 41 59.9          15.4        704
     K00E14E  C2000 03 05.36399 17 04 01.42 +29 42 01.6          15.8        704
     K00E14E  C2000 03 05.36488 17 04 01.13 +29 42 12.4          15.8 V      649
     K00E14E  C2000 03 05.37701 17 04 04.35 +29 44 20.0          15.4        704
     K00E14E  C2000 03 05.37715 17 04 04.38 +29 44 21.6          15.6        704
     K00E14E  C2000 03 05.39015 17 04 07.27 +29 46 39.7          15.1        704
     K00E14E  C2000 03 05.39029 17 04 07.11 +29 46 40.8          15.8        704
     K00E14E  C2000 03 05.40330 17 04 10.14 +29 48 59.6          16.8        704
     K00E14E  C2000 03 05.40344 17 04 10.20 +29 49 01.0          16.5        704
     K00E14E  C2000 03 06.01363 17 06 34.16 +31 35 38.4          15.5        143
     K00E14E  C2000 03 06.01411 17 06 34.29 +31 35 43.4          15.5        143
     K00E14E  C2000 03 06.01507 17 06 34.53 +31 35 53.2          15.6        143
     K00E14E  C2000 03 06.01554 17 06 34.62 +31 35 58.3          15.6        143
     K00E14E  C2000 03 06.90796 17 10 14.02 +34 11 51.3                      587
     K00E14E  C2000 03 06.90970 17 10 14.52 +34 12 08.6                      587
     K00E14E  C2000 03 06.91391 17 10 15.60 +34 12 53.6                      587
     K00E14E  C2000 03 07.01053 17 10 40.00 +34 29 54.6          15.9 V      611
     K00E14E  C2000 03 07.01104 17 10 40.04 +34 30 02.7          15.2 R      046
     K00E14E  C2000 03 07.01157 17 10 40.26 +34 30 05.7                      611
     K00E14E  C2000 03 07.01190 17 10 40.27 +34 30 11.0                      046
     K00E14E  C2000 03 07.01253 17 10 40.48 +34 30 18.0                      046
     K00E14E  C2000 03 07.01262 17 10 40.53 +34 30 16.7                      611
     K00E14E  C2000 03 07.01300 17 10 40.59 +34 30 22.9                      046
     K00E14E  C2000 03 07.01366 17 10 40.78 +34 30 27.7                      611
     K00E14E  C2000 03 07.01395 17 10 40.82 +34 30 32.7                      046
     K00E14E  C2000 03 07.01470 17 10 41.05 +34 30 38.8                      611
     K00E14E  C2000 03 07.08561 17 10 58.32 +34 43 08.6          15.9 R      541
     K00E14E  C2000 03 07.08663 17 10 58.58 +34 43 19.6          16.1 R      541
     K00E14E  C2000 03 07.08773 17 10 58.87 +34 43 31.1          16.0 R      541
     K00E14E  C2000 03 07.09735 17 11 01.19 +34 45 12.9          16.0 R      541
     K00E14E  C2000 03 07.10522 17 11 03.09 +34 46 35.8          15.8 R      541
     K00E14E  C2000 03 07.10604 17 11 03.29 +34 46 44.5                      541
     K00E14E  C2000 03 07.10769 17 11 03.69 +34 47 01.9          16.0 R      541
     K00E14E  C2000 03 07.15804 17 11 15.78 +34 55 51.5          16.0 R      541
     K00E14E  C2000 03 07.16097 17 11 16.51 +34 56 22.5                      541
     K00E14E  C2000 03 07.16179 17 11 16.70 +34 56 30.9          15.8 R      541
     K00E14E  C2000 03 07.16262 17 11 16.89 +34 56 39.6          15.7 R      541
     K00E14E  C2000 03 07.19120 17 11 23.73 +35 01 40.2          15.9 V      557
     K00E14E  C2000 03 07.19185 17 11 23.90 +35 01 46.7                      557
     K00E14E  C2000 03 07.19249 17 11 24.06 +35 01 53.8                      557
     K00E14E  C2000 03 07.19314 17 11 24.22 +35 02 00.2                      557
     K00E14E  C2000 03 07.19379 17 11 24.37 +35 02 06.9                      557

Observer details:
046 Klet.  Observers M. Tichy, Z. Moravec.  0.57-m f/5.2 reflector + CCD.
143 Gnosca.  Observer S. Sposetti.  0.20-m f/6.3 reflector + CCD.
541 Prague.  Observer J. Manek.  0.41-m f/6.9 Schmidt-Cassegrain + CCD.
557 Ondrejov.  Observer P. Kusnirak.  0.65-m f/3.6 reflector + CCD.
587 Sormano.  Observers F. Manca, A. Testa.  0.5-m reflector + CCD.
611 Starkenburg.  Observer M. Busch.  0.45-m f/4.4 reflector + CCD.
649 Powell Observatory, Louisburg.  Observers P. Pittman, T. Martinez.
    Measurers R. Alonzi, R. Fredrick.  0.30-m Schmidt-Cassegrain + CCD.
704 Lincoln Laboratory ETS, New Mexico.  Observers M. Blythe, F. Shelly,
    M. Bezpalko, M. Elowitz, R. Huber.  Measurers J. Stuart, H. Viggh,
    R. Sayer, J. B. Evans.  1.0-m f/2.15 reflector + CCD.
739 Sunflower Observatory, Olathe.  Observer L. Robinson.  0.25-m
    Schmidt-Cassegrain + CCD.
946 Ametlla de Mar.  Observer J. Nomen.  0.30-m f/5.0 reflector + CCD.

Orbital elements:
2000 EE14                                                            PHA 0.038A
Epoch 2000 Feb. 26.0 TT = JDT 2451600.5                 Williams
M 161.52234              (2000.0)            P               Q
n   1.83214744     Peri.  197.74477     +0.98063069     +0.06926274
a   0.6614481      Node   155.90448     -0.07422880     +0.99703297
e   0.5340869      Incl.   26.66419     -0.18125544     -0.03358462
P   0.54           H   17.1           G   0.15
From 63 observations 2000 Mar. 4-7.

Ephemeris:
2000 EE14                a,e,i = 0.66, 0.53, 27                  q = 0.3082
Date    TT    R. A. (2000) Decl.     Delta      r     Elong.  Phase     V
2000 03 07    17 10.57   +34 28.4    0.165    1.015    93.1    77.6    15.9
2000 03 12    17 35.30   +48 25.8    0.172    1.013    91.5    78.7    16.0
2000 03 17    18 10.48   +60 14.7    0.187    1.007    88.3    81.0    16.3
2000 03 22    19 03.68   +69 06.2    0.209    0.998    84.3    83.7    16.6
2000 03 27    20 24.3    +74 42.0    0.235    0.984    79.9    86.5    17.0
2000 04 01    22 07.5    +76 54.2    0.264    0.967    75.3    89.4    17.3
2000 04 06    23 41.0    +76 18.1    0.293    0.945    70.7    92.3    17.6
2000 04 11    00 44.8    +74 09.8    0.322    0.920    66.0    95.3    17.9
2000 04 16    01 24.6    +71 22.4    0.351    0.890    61.3    98.5    18.1
2000 04 21    01 49.69   +68 16.0    0.380    0.855    56.4   101.9    18.4
2000 04 26    02 06.16   +64 54.3    0.408    0.817    51.4   105.7    18.6
2000 05 01    02 17.52   +61 15.1    0.436    0.773    46.2   109.7    18.9
2000 05 06    02 25.92   +57 13.7    0.466    0.725    41.0   114.1    19.2
2000 05 11    02 32.86   +52 45.8    0.498    0.672    35.7   118.6    19.5

Gareth V. Williams           (C) Copyright 2000 MPC           M.P.E.C. 2000-E26

Read MPEC 2000-E25 Read MPEC 2000-E27


MPEC number:

Enter an MPEC number in one of the following forms:

  • 1997-B01 (the full form)
  • J97B01 (the packed version of the full form)
  • B01 (the abbreviated form)

Valid HTML 4.01!